Regional Weather Roundup
Issued by NWS

Home | Current Version | Previous Version | Text Only | Print | Product List | Glossary Off
Versions: 1 2 3 4 5 6 7 8 9 10 11 12 13 14 15 16 17 18 19 20 21 22 23 24 25 26 27 28 29

000
ASUS45 KCYS 291210
RWRWY

WYOMING REGIONAL WEATHER ROUNDUP
NATIONAL WEATHER SERVICE CHEYENNE WY
600 AM MDT WED OCT 29 2014

NOTE:  "FAIR" INDICATES FEW OR NO CLOUDS BELOW 12,000 FEET
WITH NO SIGNIFICANT WEATHER AND/OR OBSTRUCTIONS TO VISIBILITY.

WYZ001-291300-
YELLOWSTONE NATIONAL PARK

CITY           SKY/WX    TMP DP  RH WIND       PRES   REMARKS
LK YELLOWSTONE   N/A     22  20  92 CALM      30.25
6HR MIN TEMP:  17; 6HR MAX TEMP:  23;

W YELLOWSTONE  NOT AVBL

$$
WYZ002>013-054>058-071-098>099-291300-
NORTHERN WYOMING

CITY           SKY/WX    TMP DP  RH WIND       PRES   REMARKS
JACKSON        CLOUDY    23  21  93 CALM      30.25F
CODY           PTCLDY    48  19  32 W17G23    30.07
GREYBULL       MOCLDY    29  15  56 SE3       30.08F
6HR MIN TEMP:  26; 6HR MAX TEMP:  34;

WORLAND        PTCLDY    24  13  62 W5        30.08S WCI  18
6HR MIN TEMP:  21; 6HR MAX TEMP:  32;

SHERIDAN       CLEAR     27  19  72 CALM      29.98F
6HR MIN TEMP:  25; 6HR MAX TEMP:  32;

BUFFALO        CLEAR     41  17  38 CALM      30.02F
6HR MIN TEMP:  34; 6HR MAX TEMP:  47;

GILLETTE       CLEAR     40  15  36 E5        30.02F
6HR MIN TEMP:  35; 6HR MAX TEMP:  40;

HULETT         FAIR      37  19  48 W9        30.03  WCI  31
NEWCASTLE      FAIR      27  18  69 CALM      30.08

$$
WYZ014>020-022>026-101>103-291300-
CENTRAL WYOMING

CITY           SKY/WX    TMP DP  RH WIND       PRES   REMARKS
BIG PINEY      PTCLDY    14   9  80 NW5       30.28S WCI   6
6HR MIN TEMP:  14; 6HR MAX TEMP:  24;

PINEDALE       SUNNY     18  16  93 W7        30.27  WCI   8
DUBOIS         FAIR      30  16  55 NW18      30.18R WCI  18
LANDER         PTCLDY    30  13  49 CALM      30.12S
6HR MIN TEMP:  29; 6HR MAX TEMP:  39;

RIVERTON       PTCLDY    33  12  41 SW8       30.13S WCI  26
6HR MIN TEMP:  29; 6HR MAX TEMP:  40;

CASPER         CLEAR     40  11  30 W8        30.12R WCI  34
6HR MIN TEMP:  33; 6HR MAX TEMP:  42;

DOUGLAS        PTCLDY    20  13  74 SE6       30.11F WCI  12
6HR MIN TEMP:  18; 6HR MAX TEMP:  28;


$$
WYZ021-027>030-104>119-291300-
SOUTHERN WYOMING

CITY           SKY/WX    TMP DP  RH WIND       PRES   REMARKS
EVANSTON       PTCLDY    33   7  33 S6        30.30S WCI  28
6HR MIN TEMP:  32; 6HR MAX TEMP:  37;

FORT BRIDGER   FAIR      37   8  30 W12       30.31S WCI  29
ROCK SPRINGS   PTCLDY    31   9  39 W9        30.27S WCI  23
6HR MIN TEMP:  28; 6HR MAX TEMP:  35;

DIXON          FAIR      20  14  78 CALM      30.33R
RAWLINS        CLEAR     35   7  31 SW8       30.24F WCI  29
6HR MIN TEMP:  34; 6HR MAX TEMP:  38;

SARATOGA       FAIR      27  10  50 S5        30.27S WCI  21
LARAMIE        CLEAR     34  10  37 SW18      30.21R WCI  23
6HR MIN TEMP:  26; 6HR MAX TEMP:  37;

CHEYENNE       CLEAR     42  12  29 SW16      30.16F
6HR MIN TEMP:  32; 6HR MAX TEMP:  42;

TORRINGTON     PTCLDY    22  16  78 W5        30.11F WCI  16
6HR MIN TEMP:  22; 6HR MAX TEMP:  31;

PINE BLUFFS    FAIR      27  21  80 S8        30.16S WCI  18

$$



USA.gov is the U.S. government's official web portal to all federal, state and local government web resources and services.